Theta_e
336 336 335 334 333 335 334 335 336 335 336 335 335 335 335 333 333 335 336 332 331 332
336 337 336 335 336 334 335 332 335 335 335 335 335 335 336 336 335 336 336 335 335 335
336 337 336 336 334 333 334 333 334 334 334 335 335 334 335 334 335 334 332 327 329 333
336 335 336 335 334 334 334 334 333 333 334 333 334 337 336 334 333 331 333 333 332 332
335 334 336 334 335 335 334 333 332 332 332 332 334 335 331 331 332 330 329 330 331 332
334 335 334 334 335 334 333 333 332 332 333 330 332 331 331 330 329 330 331 330 329 331
333 333 334 335 335 333 334 332 332 332 331 329 329 329 329 329 330 330 333 331 332 331
334 334 334 334 334 334 335 334 333 332 330 329 329 328 329 329 329 328 331 334 332 332
333 333 333 334 334 334 333 333 333 333 332 330 327 308 313 323 330 330 331 332 332 331
332 332 332 333 333 334 334 335 333 332 332 328 329 306 308 312 331 331 332 332 328 327
330 331 332 333 334 334 336 334 331 328 330 329 326 305 305 310 331 332 334 331 334 332
330 331 331 331 335 336 334 325 328 329 327 328 324 301 304 315 331 332 332 334 332 332
331 331 330 330 334 336 336 333 330 328 324 314 319 300 302 318 327 327 328 331 331 308
332 331 333 332 335 336 334 334 332 329 329 328 323 313 302 309 326 327 325 327 327 319
Wind_Speed
5 3 3 2 3 1 3 4 6 5 5 5 5 6 6 5 5 6 4 6 4 3
5 2 2 1 2 3 5 6 5 5 5 5 5 5 5 4 6 5 4 4 6 5
5 3 3 4 3 4 5 5 6 5 5 5 5 4 3 5 5 4 6 4 3 2
4 4 4 3 4 5 7 7 6 5 4 4 4 2 1 2 4 4 5 5 5 5
5 4 3 4 6 6 7 7 7 6 5 4 2 3 4 5 4 5 5 4 5 7
5 3 4 4 6 5 7 7 6 6 6 3 3 4 4 5 6 6 7 6 5 7
5 4 5 5 7 7 7 7 7 6 7 5 5 4 5 5 6 5 7 7 7 8
6 6 6 6 7 7 7 7 8 9 8 6 5 4 5 6 7 6 6 7 7 7
7 7 7 7 7 8 8 8 8 9 8 7 4 6 5 4 7 7 7 8 9 11
8 8 8 8 8 9 8 7 7 8 8 6 9 5 3 1 6 8 7 10 8 8
8 9 8 8 9 8 8 7 6 4 8 8 7 6 3 4 6 7 8 9 10 10
9 9 8 8 9 9 9 6 6 7 8 9 7 3 5 5 6 9 8 9 7 11
10 10 8 8 8 8 8 10 8 9 8 8 5 4 5 2 6 5 7 8 10 16
11 10 9 8 7 9 8 10 10 9 9 9 7 4 6 8 5 8 6 8 10 7
Wind_Direction
152 193 244 208 335 276 177 196 141 180 178 190 178 168 180 192 198 211 210 169 182 239
165 218 34 117 122 173 172 132 164 161 155 130 152 153 167 193 199 198 145 130 165 211
156 155 144 133 148 141 132 161 159 166 140 132 145 151 167 174 179 172 124 179 222 230
145 125 167 146 153 152 159 164 166 164 129 113 117 134 152 166 136 128 166 159 174 149
141 140 155 148 135 166 163 168 164 163 138 118 158 131 138 157 144 138 119 126 157 163
149 139 128 136 131 170 157 160 162 166 116 138 152 129 139 134 118 139 130 159 140 139
139 131 137 128 119 149 146 150 151 143 105 131 118 113 136 116 113 119 133 140 150 139
139 142 139 122 124 128 139 142 130 122 126 128 124 116 121 122 120 125 123 112 103 86
144 154 136 134 134 133 131 139 140 134 125 121 115 82 70 112 124 123 114 107 95 100
147 153 148 144 136 129 128 135 130 123 118 124 124 115 104 50 121 121 131 105 114 108
162 149 146 144 133 134 132 124 124 83 127 132 122 137 163 283 147 123 124 126 131 136
156 154 150 144 144 141 120 124 134 138 140 136 140 175 199 251 148 135 120 123 110 116
159 152 152 141 144 152 140 118 129 138 133 130 146 185 186 185 117 121 119 111 100 69
163 159 144 143 147 155 157 120 127 123 142 142 140 138 147 129 135 131 124 120 118 116